SCP
0 0 0 0 0 0 0 0 0 0 0 0 0 0 0 0 0 0 0 0 0 0 0 0 0 0 0 0 0 0 0 0 0 0 0 0 1 1 1 2 1 1 1 1 1 1 1 1 1
0 0 0 0 0 0 0 0 0 0 0 0 0 0 0 0 0 0 0 0 0 0 0 0 0 0 0 0 0 0 0 0 0 0 0 0 1 1 1 1 1 1 1 1 1 1 1 1 1
0 0 0 0 0 0 0 0 0 0 0 0 0 0 0 0 0 0 0 0 0 0 0 0 0 0 0 0 0 0 0 0 0 0 0 1 1 1 1 1 1 1 1 1 1 1 2 1 1
0 0 0 0 0 0 0 0 0 0 0 0 0 0 0 0 0 0 0 0 0 0 0 0 0 1 0 0 0 1 1 0 0 0 1 1 1 1 1 1 1 1 1 1 2 2 2 2 2
0 0 0 0 0 0 0 0 0 0 0 0 0 0 0 0 0 0 0 0 0 0 0 0 0 0 1 1 1 1 1 1 0 0 1 1 1 1 1 1 1 2 2 2 2 2 2 2 2
0 0 0 0 0 0 0 0 0 0 0 0 0 0 0 0 1 0 0 0 0 0 0 0 0 0 0 1 1 1 1 1 0 0 0 1 1 2 2 3 2 2 2 2 2 3 2 2 1
0 0 0 0 0 0 0 0 0 0 0 0 0 0 0 0 0 0 0 0 0 0 0 0 0 0 0 0 1 1 1 1 0 0 0 1 1 2 3 3 3 2 2 3 3 3 2 1 1
0 0 0 0 0 0 0 0 0 0 0 0 0 0 0 0 0 0 0 0 0 0 0 0 0 0 0 0 0 0 0 0 0 0 0 1 1 2 3 3 3 3 3 3 3 2 2 1 1
0 0 0 0 0 0 0 0 0 0 0 0 0 0 0 0 0 0 0 0 0 0 0 0 0 0 0 0 0 0 0 0 0 0 0 0 0 1 1 2 2 3 3 2 2 2 1 1 1
0 0 0 0 0 0 0 0 0 0 0 0 0 0 0 0 0 0 0 0 0 0 0 0 0 0 0 0 0 0 0 0 0 0 0 0 0 0 1 1 2 2 2 2 1 1 1 1 1
0 0 0 0 0 0 0 0 0 0 0 0 0 0 0 0 0 0 0 0 0 0 0 0 0 0 0 0 0 0 0 0 0 0 0 0 0 0 0 1 1 1 1 1 1 1 0 0 0
0 0 0 0 0 0 0 0 0 0 0 0 0 0 0 0 0 0 0 0 0 0 0 0 0 0 0 0 0 0 0 0 0 0 0 0 0 0 0 0 0 0 0 0 0 0 0 0 0
0 0 0 0 0 0 0 0 0 0 0 0 0 0 0 0 0 1 1 1 1 0 0 0 0 0 0 0 0 0 0 0 0 0 0 0 0 0 0 0 0 0 0 0 0 0 0 0 0
0 0 0 0 0 0 0 0 1 0 0 0 0 1 1 0 0 1 1 1 1 0 0 0 0 0 0 1 1 1 0 0 0 0 0 0 0 1 1 1 0 0 0 0 0 0 0 0 0
0 0 0 0 0 0 0 0 1 0 1 1 1 1 1 0 0 0 0 0 0 0 0 0 0 0 0 0 1 1 0 0 0 0 0 0 1 1 1 1 0 0 0 0 0 0 0 0 0
1 1 0 0 0 0 0 0 0 0 1 1 1 1 1 0 0 0 0 0 0 0 0 0 0 0 0 0 0 0 0 0 0 0 0 0 1 1 1 1 0 0 0 0 0 0 0 0 0
1 1 0 0 0 0 0 0 0 0 0 1 1 1 1 0 0 0 0 0 0 0 0 0 0 0 0 0 0 0 0 0 0 0 0 0 0 0 1 1 0 0 0 0 0 0 0 0 0
1 1 1 0 0 0 0 0 0 0 0 0 0 0 0 0 0 0 0 0 1 1 0 0 0 0 0 0 0 0 0 0 0 0 0 0 0 0 0 0 0 0 0 0 0 0 0 0 0
1 1 1 0 0 0 0 0 0 0 0 0 0 0 0 0 0 0 0 1 1 1 1 1 0 0 0 0 0 0 0 0 0 0 0 0 0 0 0 0 0 0 0 0 0 0 1 1 1
1 1 1 0 0 0 0 0 0 0 0 0 0 0 0 0 0 0 1 1 1 1 1 1 1 0 0 0 0 0 0 0 0 0 0 0 0 0 0 0 0 0 0 0 0 1 1 1 1
1 1 1 0 0 0 0 0 0 0 0 0 0 0 0 0 0 0 1 1 1 1 1 1 1 1 0 0 0 0 0 0 0 0 0 0 0 0 0 0 0 0 0 0 0 1 1 1 1
0 1 1 0 0 0 0 0 0 0 0 0 0 0 0 0 0 0 1 1 1 1 1 1 1 1 0 0 0 0 0 0 0 0 0 0 0 0 0 0 0 0 0 0 0 1 1 1 1
0 0 0 0 1 0 0 0 0 0 0 0 0 0 0 0 0 1 1 1 1 1 1 1 1 1 1 0 0 0 0 0 0 0 0 0 0 1 0 0 0 0 0 0 0 0 1 1 1
0 0 1 1 1 0 0 0 0 0 0 0 0 0 0 0 0 1 1 1 1 1 1 1 1 1 1 0 0 0 0 0 0 0 0 0 1 1 1 1 1 0 0 0 0 0 0 0 0
0 1 1 1 0 0 0 0 0 0 0 0 0 0 0 0 0 0 1 1 1 1 1 1 1 1 1 1 0 0 0 0 0 0 0 0 1 1 1 1 1 1 1 1 1 1 0 0 0
0 1 1 1 0 0 0 0 0 0 0 0 0 0 0 0 0 0 1 1 1 1 1 1 1 1 1 1 1 0 0 1 1 1 1 1 1 1 1 1 1 1 1 1 1 1 0 0 0
0 1 1 1 0 0 0 0 0 0 0 0 0 0 0 0 0 0 1 1 1 1 1 1 1 1 1 1 1 1 1 1 1 1 1 1 1 1 1 1 1 1 1 1 1 1 0 0 0
0 0 1 1 0 0 0 0 0 0 0 0 0 0 0 0 0 0 1 1 1 1 1 1 1 1 2 1 1 1 1 1 1 1 1 1 1 1 0 0 0 0 0 0 1 0 0 0 1
0 0 1 1 0 0 0 0 0 0 0 0 0 0 0 0 0 1 1 1 1 1 1 1 1 1 1 2 1 1 1 1 1 1 1 1 1 1 0 0 0 0 0 0 0 0 0 0 0
0 0 0 0 0 0 0 0 0 0 0 0 0 0 0 0 0 1 1 1 1 1 1 1 1 1 1 1 1 1 1 1 1 1 1 1 1 1 0 0 0 0 0 0 0 0 0 0 0
Wind_Speed
3 3 2 2 2 2 6 5 5 5 5 6 7 6 7 7 6 6 5 3 4 4 4 5 6 7 7 7 7 8 8 8 8 8 8 8 8 8 8 9 9 9 9 9 9 9 8 8 8
1 1 2 2 1 4 6 5 6 7 7 6 6 6 7 8 6 6 4 3 3 4 5 6 7 7 7 7 7 8 8 9 9 9 8 8 8 8 8 9 9 9 10 10 9 9 9 9 9
2 1 1 0 2 4 6 5 7 8 6 3 5 6 6 6 5 4 4 3 4 5 5 7 6 7 8 8 8 8 9 9 9 9 9 8 8 8 8 9 9 10 10 10 10 9 9 9 9
2 2 1 2 7 7 6 6 6 7 5 4 4 6 6 6 3 5 5 4 5 5 6 8 7 8 8 9 9 10 10 10 10 10 10 9 8 7 8 9 10 10 10 10 10 9 9 9 9
1 1 3 5 7 6 5 5 5 5 5 5 5 7 7 5 5 6 5 5 5 6 6 8 8 8 8 9 9 10 10 10 10 10 10 10 9 9 9 10 10 10 10 10 10 9 10 10 10
1 1 3 6 7 6 5 4 4 5 6 5 4 6 7 6 6 6 6 5 5 6 6 7 8 8 8 9 9 9 10 10 11 11 11 11 11 12 11 11 11 11 10 10 10 10 10 10 10
1 2 4 6 6 6 4 3 3 4 5 4 2 5 7 6 6 5 5 6 6 6 6 5 6 7 8 9 9 9 10 11 11 11 11 12 12 12 12 11 11 11 11 11 11 10 10 10 10
1 2 5 5 6 5 5 4 2 2 4 4 1 3 5 7 6 6 6 6 6 5 5 5 5 6 6 7 9 9 9 10 10 11 11 10 10 11 11 11 11 11 12 12 11 11 11 11 10
2 2 4 5 4 5 5 5 4 3 5 5 3 5 6 9 8 7 6 6 5 5 4 4 5 5 6 6 7 7 7 8 6 8 7 5 6 8 9 13 12 12 12 12 11 11 10 9 10
1 2 4 3 3 5 5 4 5 5 5 4 5 6 8 9 8 7 6 5 5 4 4 4 4 5 5 5 5 4 5 5 5 6 6 5 6 7 7 11 12 12 11 10 10 8 6 3 5
2 3 4 3 3 4 4 4 3 4 3 3 4 8 9 8 7 6 5 5 4 4 4 4 4 4 4 4 4 3 3 4 5 6 6 5 5 4 5 4 5 6 6 6 6 4 4 5 5
4 3 2 3 3 3 4 4 4 2 3 3 5 8 9 8 6 5 5 4 4 4 4 4 3 4 4 4 4 3 3 3 4 4 5 4 4 4 5 4 4 4 4 4 4 3 5 6 6
4 3 3 3 4 3 4 4 3 3 2 4 6 8 8 7 6 5 4 4 4 4 3 4 3 3 4 4 3 3 4 4 4 4 4 5 4 4 4 4 4 4 4 4 4 5 6 6 6
4 4 3 3 3 3 4 3 2 2 3 6 7 8 7 6 5 5 4 4 3 3 3 4 3 3 3 3 3 4 4 4 4 4 4 6 4 4 4 5 5 4 4 4 4 5 5 5 5
5 4 4 3 2 3 3 3 2 3 4 6 7 7 7 6 5 4 4 3 3 3 3 4 3 3 3 3 4 3 3 3 3 3 4 5 5 5 5 4 4 4 4 4 4 5 4 4 4
4 5 4 3 3 3 5 3 3 4 6 6 6 6 6 6 5 4 3 3 3 3 3 4 3 3 3 3 3 3 3 3 3 3 3 4 5 5 4 4 4 4 3 3 3 3 3 4 4
6 5 4 4 3 3 5 3 4 5 6 6 6 6 6 6 5 4 4 3 3 3 3 4 4 3 4 3 3 3 3 3 3 3 3 3 4 4 4 3 3 3 3 3 3 3 3 4 3
4 4 4 4 3 4 5 4 4 5 6 6 6 6 6 6 6 5 4 4 4 4 4 4 4 3 4 3 3 3 3 2 2 2 2 3 3 4 4 3 3 3 2 2 2 3 3 3 2
4 4 4 2 1 4 5 5 5 6 7 7 7 7 7 6 6 5 5 5 5 4 4 5 5 4 4 3 2 2 2 2 2 2 2 2 2 3 3 2 3 2 2 2 2 2 3 2 1
5 6 5 3 2 4 5 6 5 6 7 7 7 7 7 7 7 7 6 5 5 5 4 4 4 4 4 2 2 2 2 2 2 2 2 2 2 2 2 2 2 2 2 2 2 1 1 1 1
6 6 4 3 2 5 5 6 7 6 6 6 6 7 7 7 8 8 7 6 6 5 5 4 4 4 4 4 2 2 2 2 2 2 1 1 1 2 2 2 2 2 1 1 1 1 0 0 0
5 3 4 5 6 4 5 6 6 6 7 7 8 7 7 7 7 7 7 7 7 6 5 5 5 4 4 4 3 4 3 2 2 1 2 2 1 1 1 1 1 1 1 1 0 0 0 1 0
3 1 4 6 7 7 6 7 3 6 7 7 8 8 8 8 8 8 8 7 7 6 5 5 5 5 4 4 3 3 3 2 2 2 2 2 2 1 1 0 0 0 0 0 0 0 1 1 1
4 4 4 5 6 8 5 7 3 4 4 4 6 8 8 8 8 8 8 7 6 6 5 5 5 5 4 4 5 4 4 3 2 2 2 2 1 1 1 0 0 0 0 0 0 0 0 1 1
7 7 5 6 6 4 2 6 3 0 2 3 4 6 8 9 9 9 9 8 7 7 6 6 6 5 5 6 5 5 4 4 3 3 3 2 2 1 1 1 1 1 1 1 1 1 1 1 1
7 8 6 5 4 2 4 6 1 0 1 2 3 4 6 8 9 9 9 8 7 7 7 7 6 6 6 6 5 5 5 3 3 3 2 3 2 2 2 2 2 2 1 1 1 2 2 1 1
7 7 5 7 6 6 4 3 2 3 3 3 3 4 5 7 8 8 8 8 8 7 7 7 6 6 6 6 5 5 4 4 3 4 3 3 3 2 3 3 2 2 2 2 2 2 2 2 2
4 4 5 7 6 6 5 6 2 4 3 3 4 4 5 6 8 8 7 7 7 7 7 6 6 6 5 5 4 3 4 4 4 4 4 3 3 3 3 3 3 3 3 3 2 2 2 2 2
6 6 6 5 6 6 5 2 1 1 1 2 2 2 3 5 6 7 7 7 6 6 6 6 6 5 5 5 4 4 3 3 4 4 3 4 3 4 4 4 4 3 3 3 2 3 3 3 3
6 6 7 7 6 6 6 2 3 1 1 2 2 2 2 3 4 5 6 7 6 6 6 6 6 5 5 4 4 4 3 3 3 3 4 4 3 4 4 4 4 3 3 3 3 3 3 4 3
Wind_Direction
173 167 206 229 210 115 87 84 89 97 77 67 63 64 64 48 29 61 75 54 38 50 55 69 42 41 49 54 57 59 61 63 62 67 68 67 68 70 72 75 77 81 86 89 91 92 89 86 87
153 176 225 233 204 120 96 95 91 77 90 99 79 72 74 69 56 79 91 64 54 60 57 56 47 45 50 56 58 58 60 64 65 65 65 64 66 72 73 74 76 80 82 85 88 88 85 82 83
148 240 266 151 88 76 94 97 98 96 91 88 84 61 55 66 75 85 84 91 73 68 63 66 48 54 60 61 59 60 62 64 65 63 63 63 63 66 73 75 78 80 82 82 84 84 82 80 80
205 199 184 110 94 73 83 104 113 116 97 73 94 87 76 58 64 87 101 99 83 76 68 71 53 58 63 62 61 62 64 65 65 63 61 60 60 67 81 81 80 80 82 83 83 84 83 79 78
218 199 130 113 97 94 94 103 120 112 97 87 92 93 90 76 85 100 106 97 85 80 73 75 61 61 63 63 63 64 64 64 63 61 58 53 54 73 89 87 83 82 81 81 81 81 81 78 77
189 189 138 117 107 106 107 121 132 108 103 105 104 104 95 103 104 102 102 94 84 79 77 81 82 69 63 62 65 65 65 63 62 61 57 55 56 72 83 84 82 82 80 78 80 80 79 77 76
130 119 114 117 120 117 115 131 131 115 108 96 92 105 113 117 108 113 106 97 88 82 78 74 80 88 85 72 65 66 64 64 62 61 59 58 62 69 75 77 79 79 78 77 77 77 77 76 74
19 133 126 124 128 111 120 134 104 96 93 94 95 100 119 131 129 127 115 106 95 86 78 74 70 67 74 85 77 68 65 64 65 62 60 63 72 76 76 76 73 75 75 75 75 74 75 74 71
220 155 124 121 129 115 132 140 120 106 113 110 90 64 101 131 139 134 126 116 102 88 80 74 68 66 67 71 81 83 84 76 81 80 72 63 66 69 74 66 69 72 72 72 75 75 75 81 81
170 117 97 93 107 118 132 140 142 143 126 122 112 103 120 139 146 140 132 122 114 106 94 81 75 73 75 73 79 71 71 71 63 61 63 57 59 59 64 74 70 71 75 79 76 82 89 78 82
95 89 103 103 104 126 135 130 143 151 120 133 140 141 142 149 148 142 132 121 110 105 94 88 83 81 80 82 73 68 67 63 63 59 63 63 66 70 64 70 82 76 74 72 81 83 67 67 64
111 93 111 115 122 141 141 138 136 123 81 90 129 140 146 152 149 144 133 120 117 106 95 87 84 88 84 82 79 75 73 68 67 62 62 61 58 56 59 60 61 62 61 62 63 63 70 71 71
130 123 111 113 121 130 132 140 137 119 111 120 131 144 149 149 146 139 128 126 123 114 104 93 91 85 82 80 79 81 75 72 74 66 60 65 64 64 61 63 60 59 62 66 65 62 65 69 65
119 132 132 130 143 143 147 143 158 123 140 140 146 151 153 151 152 143 139 136 133 127 113 109 106 99 94 95 92 79 77 80 73 71 67 68 69 68 68 66 59 55 56 60 69 70 67 70 72
148 154 161 168 180 167 188 155 168 142 159 152 156 155 153 155 157 158 148 144 136 131 123 117 117 115 108 97 88 87 85 85 80 75 68 69 68 70 70 69 66 60 58 59 62 70 71 75 79
186 199 190 170 193 186 222 193 141 160 175 167 163 159 160 162 168 162 153 154 146 143 130 124 130 129 116 108 106 100 93 83 81 79 65 66 70 74 75 74 72 68 63 61 59 59 68 72 71
205 210 198 177 186 199 221 213 154 168 186 181 175 172 170 169 172 164 163 167 156 150 141 137 138 137 128 121 117 106 102 93 84 81 70 61 66 70 76 70 68 71 66 62 67 62 60 69 66
215 221 209 205 180 210 218 219 179 176 196 199 189 184 181 181 177 169 166 166 159 158 150 139 139 143 135 134 125 113 102 100 86 75 70 61 63 68 75 79 76 77 82 78 84 85 73 66 65
253 239 231 232 214 233 233 233 214 195 199 206 201 195 191 188 174 166 167 166 167 164 160 149 152 149 146 142 143 136 128 121 100 78 69 70 67 73 76 75 77 74 81 86 90 84 93 82 74
227 232 234 217 211 242 245 246 224 210 211 214 213 203 196 187 178 172 174 172 179 171 168 160 153 151 153 148 150 147 133 130 109 103 89 76 76 78 75 76 86 91 91 98 90 88 78 86 24
232 246 248 247 229 225 252 236 213 200 207 208 217 218 207 197 189 177 180 179 182 181 177 171 163 158 162 157 150 147 136 144 139 134 107 75 70 79 73 67 78 84 92 93 108 134 110 72 87
239 243 250 243 248 244 247 263 210 200 205 206 209 209 209 201 195 184 183 184 185 184 184 181 171 168 164 159 166 170 176 163 156 149 140 155 125 98 79 75 67 95 77 91 143 139 263 305 323
260 227 240 247 257 256 231 260 210 193 211 208 204 201 204 201 193 185 186 186 184 177 182 185 175 171 167 170 173 197 192 174 162 165 163 164 139 130 116 80 30 90 119 86 41 351 288 282 315
188 202 209 228 243 246 236 250 248 198 219 206 194 196 197 194 188 184 182 183 177 172 177 183 183 176 177 185 190 204 196 189 179 184 185 185 162 180 171 178 255 279 268 234 192 200 285 310 315
218 236 233 221 220 236 197 247 256 8 247 231 214 198 191 186 183 183 181 182 178 176 179 185 185 183 186 195 202 206 208 210 207 202 203 210 196 200 214 202 217 235 261 262 245 239 265 254 272
224 243 257 267 262 246 207 243 200 105 248 214 200 194 186 184 183 183 184 185 182 180 182 187 189 191 193 203 209 210 208 214 218 212 215 219 224 223 224 214 217 223 231 233 223 258 265 271 251
222 229 262 272 273 268 233 229 210 160 167 172 173 173 176 183 185 188 188 189 187 186 187 191 190 193 196 205 210 209 212 214 220 220 218 223 230 231 231 218 219 221 219 231 219 237 244 258 276
264 212 215 239 257 254 243 240 216 163 169 172 183 185 182 185 188 189 190 192 192 191 191 191 196 197 196 200 203 202 213 212 221 226 223 221 222 227 222 220 216 216 211 216 222 245 262 246 238
197 208 226 239 256 266 259 223 72 188 198 216 205 197 196 193 190 190 191 192 193 189 187 187 191 194 193 199 199 199 204 211 216 219 226 225 221 224 221 218 220 220 219 215 207 235 242 247 239
251 243 233 244 235 245 269 261 103 180 238 237 223 189 194 197 196 194 191 187 187 188 188 188 186 188 192 196 196 196 196 203 208 211 216 221 223 223 228 221 225 229 233 232 223 224 236 245 246